Regional Weather Roundup
Issued by NWS

Home | Current Version | Previous Version | Graphics & Text | Print | Product List | Glossary On
Versions: 1 2 3 4 5 6 7 8 9 10 11 12 13 14 15 16 17 18 19 20 21 22 23 24 25 26 27 28 29 30 31 32 33 34 35 36 37 38 39 40 41 42 43 44 45 46 47 48 49 50
000
ASUS43 KFSD 132202
RWRSD

WEATHER ROUNDUP FOR SOUTH DAKOTA
NATIONAL WEATHER SERVICE SIOUX FALLS SD
400 PM CST SAT FEB 13 2016

NOTE: "FAIR" INDICATES FEW OR NO CLOUDS BELOW 12,000 FEET WITH NO
SIGNIFICANT WEATHER AND/OR OBSTRUCTIONS TO VISIBILITY.


SDZ001>005-009-010-012>017-132300-
NORTHWEST AND NORTH CENTRAL SOUTH DAKOTA

CITY           SKY/WX    TMP DP  RH WIND       PRES   REMARKS
BUFFALO          N/A     31  27  85 NW5       29.73S WCI  26
FAITH            N/A     29  25  85 SE21G30   29.78F WCI  16
MOBRIDGE       CLOUDY    21  16  81 SE18G31   29.91F WCI   6
$$

SDZ012>016-024>037-041>051-057-063-072>074-132300-
SOUTHWEST AND SOUTH CENTRAL SOUTH DAKOTA

CITY           SKY/WX    TMP DP  RH WIND       PRES   REMARKS
RAPID CTY ARPT SUNNY     51  32  48 SE14      29.73F
PIERRE         MIX PCPN  27  23  85 SE15G26   29.95F WCI  15
CUSTER         SUNNY     53  23  31 W16G25    29.75F
ELLSWORTH AFB  SUNNY     52  33  48 SE14      29.72F
PHILIP         SUNNY     45  31  58 SE18      29.80F
PINE RIDGE     CLOUDY    47  34  60 S14G23    29.77F
WINNER         CLOUDY    29  19  66 S22       29.99F WCI  15
$$

SDZ004>011-016>023-039-040-132300-
NORTHEAST SOUTH DAKOTA

CITY           SKY/WX    TMP DP  RH WIND       PRES   REMARKS
ABERDEEN       CLOUDY    16   5  62 S23G31    30.14F WCI  -2
WATERTOWN      CLOUDY     9  -2  61 SE21      30.18F WCI -11
BROOKINGS      CLOUDY     8  -1  66 SE18G28   30.23F WCI -11
SISSETON         N/A      9   1  70 S23G30    30.24F WCI -11
$$

SDZ017-020-022-023-036>040-048>070-132300-
SOUTHEAST SOUTH DAKOTA

CITY           SKY/WX    TMP DP  RH WIND       PRES   REMARKS
SIOUX FALLS    FLURRIES  10   0  63 SE14G22   30.28F WCI  -6
HURON          CLOUDY    14   4  64 S24G32    30.14F WCI  -5
MITCHELL       CLOUDY    14   7  73 S22G30    30.19F WCI  -4
YANKTON        CLOUDY    12   7  79 SE15G25   30.26F WCI  -4
$$

ABBREVIATIONS USED IN REMARKS
   TC - TEMPERATURE IN CELSIUS
  WCI - WIND CHILL INDEX
   HX - HEAT INDEX
  VSB - VISIBILITY




USA.gov is the U.S. government's official web portal to all federal, state and local government web resources and services.